{"data":{"norad_id":68184,"intl_designator":"2026-050T","name":"STARLINK-36964","alt_names":[],"object_type":"PAYLOAD","status":"ACTIVE","operator":null,"country":"US","launch_date":"2026-03-14","launch_site_code":"AFETR","launch_vehicle":null,"mission":null,"orbit_class":"UNKNOWN","rcs_meters":null,"size_class":null,"mass_kg":null,"dimensions":null,"purposes":["comms"],"wikipedia_slug":null,"has_3d_model":false,"image_url":null,"decayed_at":null,"tle_current":{"epoch":"2026-05-24T15:00:03.500064Z","epoch_age_seconds":97721,"freshness":"FRESH","line1":"1 68184U 26050T   26144.62504051  .00020458  00000+0  53109-3 0  9999","line2":"2 68184  53.1586 273.7239 0001071  82.9459 277.1668 15.38975805 12311","mean_motion":15.38975805,"eccentricity":0.0001071,"inclination_deg":53.1586,"raan_deg":273.7239,"arg_perigee_deg":82.9459,"mean_anomaly_deg":277.1668,"bstar":0.00053109,"rev_number":1231,"period_min":93.568722479039,"perigee_km":448.40549137338,"apogee_km":449.86789339829,"semimajor_km":6827.2736923858,"source":"CELESTRAK","updated_at":"2026-05-25T13:38:21.856073Z"}}}